Weather History for KETH - February, 2014

Change the Weather History Date:

Wednesday, February 19, 2014

  Actual Average Record
Temperature  
Mean Temperature 32 °F -  
Max Temperature 39 °F 28 °F 58 °F (1981)
Min Temperature 24 °F 9 °F -18 °F (1966)
Degree Days  
Heating Degree Days 34    
Moisture  
Dew Point 30 °F    
Average Humidity 87    
Maximum Humidity 93    
Minimum Humidity 75    
Precipitation  
Precipitation 0.00 in - - ()
Sea Level Pressure  
Sea Level Pressure 29.66 in    
Wind  
Wind Speed 9 mph (South)    
Max Wind Speed 21 mph    
Max Gust Speed 28 mph    
Visibility 10 miles    
Events      
Averages and records for this station are not official NWS values.
T = Trace of Precipitation, MM = Missing Value Source: NWS Daily Summary

Daily Weather History Graph

Daily Weather History Graph

Search for Another Location

Airport or City:

Trip Planner

Search our weather history database for the weather conditions in past years. The results will help you decide how hot, cold, wet, or windy it might be!

Date:

Astronomy

Feb. 19, 2014 Rise Set
Actual Time 7:21 AM CST 5:58 PM CST
Civil Twilight 6:51 AM CST 6:29 PM CST
Nautical Twilight 6:16 AM CST 7:03 PM CST
Astronomical Twilight 5:42 AM CST 7:38 PM CST
Moon 11:10 PM CST (2/19) 9:12 AM CST (2/19)
Length of Visible Light 11h 37m
Length of Day
10h 36m
Waning Gibbous, 79% of the Moon is Illuminated
Feb 19
Waning Gibbous
Feb 22
Last Quarter
Mar 1
New
Mar 8
First Quarter
Mar 16
Full

Hourly Weather History & Observations

Time (CST) Temp. Windchill Dew Point Humidity Pressure Visibility Wind Dir Wind Speed Gust Speed Precip Events Conditions
12:14 AM 32.0 °F 25.6 °F 28.4 °F 87% 29.79 in 10.0 mi WSW 6.9 mph - N/A   Clear
12:34 AM 30.2 °F 23.4 °F 28.4 °F 93% 29.80 in 10.0 mi WSW 6.9 mph - N/A   Clear
12:54 AM 30.2 °F 22.6 °F 28.4 °F 93% 29.81 in 10.0 mi WSW 8.1 mph - N/A   Clear
1:14 AM 30.2 °F 23.4 °F 28.4 °F 93% 29.80 in 10.0 mi WSW 6.9 mph - N/A   Clear
1:34 AM 30.2 °F 23.4 °F 26.6 °F 86% 29.80 in 10.0 mi WSW 6.9 mph - N/A   Clear
1:54 AM 28.4 °F 21.2 °F 26.6 °F 93% 29.80 in 10.0 mi WSW 6.9 mph - N/A   Clear
2:14 AM 30.2 °F 23.4 °F 28.4 °F 93% 29.80 in 10.0 mi WSW 6.9 mph - N/A   Clear
2:34 AM 30.2 °F 22.6 °F 28.4 °F 93% 29.80 in 10.0 mi WSW 8.1 mph - N/A   Clear
2:54 AM 28.4 °F 22.2 °F 26.6 °F 93% 29.80 in 10.0 mi WSW 5.8 mph - N/A   Clear
3:14 AM 28.4 °F 22.2 °F 26.6 °F 93% 29.80 in 10.0 mi West 5.8 mph - N/A   Clear
3:34 AM 28.4 °F 23.3 °F 26.6 °F 93% 29.80 in 10.0 mi West 4.6 mph - N/A   Clear
3:54 AM 28.4 °F 23.3 °F 26.6 °F 93% 29.80 in 10.0 mi West 4.6 mph - N/A   Clear
4:14 AM 26.6 °F 20.0 °F 24.8 °F 93% 29.79 in 10.0 mi WSW 5.8 mph - N/A   Clear
4:34 AM 26.6 °F 20.0 °F 24.8 °F 93% 29.79 in 10.0 mi WSW 5.8 mph - N/A   Clear
4:54 AM 28.4 °F 22.2 °F 26.6 °F 93% 29.78 in 10.0 mi WSW 5.8 mph - N/A   Clear
5:14 AM 26.6 °F 20.0 °F 24.8 °F 93% 29.78 in 10.0 mi WSW 5.8 mph - N/A   Clear
5:34 AM 26.6 °F 21.2 °F 24.8 °F 93% 29.78 in 10.0 mi SW 4.6 mph - N/A   Clear
5:54 AM 26.6 °F 20.0 °F 24.8 °F 93% 29.78 in 10.0 mi South 5.8 mph - N/A   Clear
6:14 AM 26.6 °F 20.0 °F 24.8 °F 93% 29.78 in 10.0 mi SSW 5.8 mph - N/A   Clear
6:34 AM 24.8 °F 16.1 °F 21.2 °F 86% 29.78 in 10.0 mi South 8.1 mph - N/A   Clear
6:54 AM 24.8 °F 16.9 °F 23.0 °F 93% 29.77 in 10.0 mi SSE 6.9 mph - N/A   Clear
7:14 AM 24.8 °F 15.3 °F 23.0 °F 93% 29.76 in 10.0 mi South 9.2 mph - N/A   Clear
7:34 AM 24.8 °F 16.9 °F 23.0 °F 93% 29.77 in 10.0 mi SSW 6.9 mph - N/A   Clear
7:54 AM 24.8 °F 16.1 °F 23.0 °F 93% 29.77 in 10.0 mi SSW 8.1 mph - N/A   Clear
8:14 AM 24.8 °F 16.9 °F 23.0 °F 93% 29.77 in 10.0 mi SSW 6.9 mph - N/A   Clear
8:34 AM 26.6 °F 21.2 °F 23.0 °F 86% 29.77 in 10.0 mi SSW 4.6 mph - N/A   Clear
8:54 AM 28.4 °F 20.4 °F 24.8 °F 86% 29.76 in 10.0 mi South 8.1 mph - N/A   Clear
9:14 AM 30.2 °F 26.7 °F 26.6 °F 86% 29.75 in 10.0 mi SSE 3.5 mph - N/A   Clear
9:34 AM 32.0 °F 26.4 °F 28.4 °F 87% 29.75 in 10.0 mi SSE 5.8 mph - N/A   Clear
9:54 AM 33.8 °F 27.7 °F 28.4 °F 81% 29.75 in 10.0 mi SSE 6.9 mph - N/A   Clear
10:14 AM 35.6 °F 29.9 °F 30.2 °F 81% 29.74 in 10.0 mi SSE 6.9 mph - N/A   Clear
10:34 AM 35.6 °F 31.7 °F 30.2 °F 81% 29.74 in 10.0 mi South 4.6 mph - N/A   Clear
10:54 AM 37.4 °F 31.4 °F 30.2 °F 75% 29.72 in 10.0 mi South 8.1 mph - N/A   Clear
11:14 AM 37.4 °F 32.1 °F 32.0 °F 81% 29.71 in 10.0 mi South 6.9 mph - N/A   Clear
11:34 AM 37.4 °F 31.4 °F 32.0 °F 81% 29.71 in 10.0 mi SSE 8.1 mph - N/A   Clear
11:54 AM 37.4 °F 29.3 °F 32.0 °F 81% 29.69 in 10.0 mi SE 12.7 mph - N/A   Clear
12:14 PM 37.4 °F 29.3 °F 33.8 °F 87% 29.67 in 10.0 mi SE 12.7 mph - N/A   Clear
12:34 PM 37.4 °F 28.9 °F 33.8 °F 87% 29.65 in 10.0 mi SE 13.8 mph - N/A   Clear
12:54 PM 37.4 °F 28.9 °F 33.8 °F 87% 29.64 in 10.0 mi ESE 13.8 mph - N/A   Clear
1:14 PM 37.4 °F 28.2 °F 33.8 °F 87% 29.63 in 10.0 mi SE 16.1 mph - N/A   Clear
1:34 PM 37.4 °F 27.8 °F 33.8 °F 87% 29.62 in 10.0 mi ESE 17.3 mph - N/A   Clear
1:54 PM 37.4 °F 27.8 °F 33.8 °F 87% 29.60 in 10.0 mi ESE 17.3 mph - N/A   Scattered Clouds
2:14 PM 37.4 °F 27.5 °F 33.8 °F 87% 29.59 in 10.0 mi SE 18.4 mph 24.2 mph N/A   Scattered Clouds
2:34 PM 37.4 °F 28.2 °F 33.8 °F 87% 29.58 in 10.0 mi SE 16.1 mph - N/A   Clear
2:54 PM 37.4 °F 27.2 °F 33.8 °F 87% 29.56 in 10.0 mi SE 19.6 mph - N/A   Clear
3:14 PM 37.4 °F 27.8 °F 33.8 °F 87% 29.56 in 10.0 mi SE 17.3 mph - N/A   Clear
3:34 PM 37.4 °F 27.2 °F 33.8 °F 87% 29.56 in 10.0 mi SE 19.6 mph - N/A   Clear
3:54 PM 37.4 °F 26.9 °F 33.8 °F 87% 29.55 in 10.0 mi SE 20.7 mph - N/A   Clear
4:14 PM 37.4 °F 26.9 °F 33.8 °F 87% 29.54 in 10.0 mi SE 20.7 mph - N/A   Clear
4:34 PM 37.4 °F 26.9 °F 33.8 °F 87% 29.54 in 10.0 mi SE 20.7 mph - N/A   Clear
4:54 PM 37.4 °F 27.5 °F 33.8 °F 87% 29.53 in 10.0 mi SE 18.4 mph 27.6 mph N/A   Clear
5:14 PM 37.4 °F 27.2 °F 33.8 °F 87% 29.52 in 10.0 mi ESE 19.6 mph - N/A   Clear
5:34 PM 37.4 °F 27.5 °F 33.8 °F 87% 29.52 in 10.0 mi SE 18.4 mph - N/A   Clear
5:54 PM 37.4 °F 27.2 °F 33.8 °F 87% 29.51 in 10.0 mi SE 19.6 mph - N/A   Clear
6:14 PM 37.4 °F 27.2 °F 33.8 °F 87% 29.50 in 10.0 mi SE 19.6 mph - N/A   Clear
6:34 PM 37.4 °F 27.2 °F 33.8 °F 87% 29.50 in 10.0 mi SE 19.6 mph - N/A   Clear
6:54 PM 39.2 °F 30.2 °F 33.8 °F 81% 29.49 in 10.0 mi SE 17.3 mph 26.5 mph N/A   Clear
7:14 PM 39.2 °F 29.8 °F 33.8 °F 81% 29.49 in 10.0 mi SE 18.4 mph - N/A   Clear
7:34 PM 39.2 °F 31.2 °F 33.8 °F 81% 29.50 in 10.0 mi SE 13.8 mph - N/A   Clear
7:54 PM 39.2 °F 29.6 °F 33.8 °F 81% 29.49 in 10.0 mi SE 19.6 mph - N/A   Clear
8:14 PM 39.2 °F 29.3 °F 33.8 °F 81% 29.49 in 10.0 mi SSE 20.7 mph 26.5 mph N/A   Clear
8:34 PM 39.2 °F 30.2 °F 33.8 °F 81% 29.49 in 10.0 mi SE 17.3 mph - N/A   Clear
8:54 PM 39.2 °F 31.6 °F 33.8 °F 81% 29.50 in 10.0 mi SSE 12.7 mph - N/A   Clear
9:14 PM 39.2 °F 31.2 °F 33.8 °F 81% 29.50 in 10.0 mi SSE 13.8 mph - N/A   Scattered Clouds
9:34 PM 39.2 °F 33.0 °F 33.8 °F 81% 29.50 in 10.0 mi South 9.2 mph - N/A   Mostly Cloudy
9:54 PM 37.4 °F 30.3 °F 33.8 °F 87% 29.50 in 10.0 mi South 10.4 mph - N/A   Scattered Clouds
10:14 PM 37.4 °F 30.8 °F 33.8 °F 87% 29.52 in 10.0 mi South 9.2 mph - N/A   Scattered Clouds
10:34 PM 37.4 °F 31.4 °F 33.8 °F 87% 29.52 in 10.0 mi South 8.1 mph - N/A   Clear
10:54 PM 37.4 °F 31.4 °F 33.8 °F 87% 29.52 in 10.0 mi South 8.1 mph - N/A   Clear
11:14 PM 37.4 °F 31.4 °F 33.8 °F 87% 29.52 in 10.0 mi SSW 8.1 mph - N/A   Clear
11:34 PM 37.4 °F 32.1 °F 33.8 °F 87% 29.53 in 10.0 mi SW 6.9 mph - N/A   Clear
11:54 PM 37.4 °F 30.8 °F 33.8 °F 87% 29.54 in 10.0 mi WSW 9.2 mph - N/A   Clear